Danville, KY

2:08 AM EST on January 20, 2017 (GMT -0500)
Powell

Weather History for KDVK - March, 2013

Change the Weather History Date:

Tuesday, March 5, 2013

  Actual Average (KLEX) Record (KLEX)
Temperature  
Mean Temperature 38 °F -  
Max Temperature 46 °F 51 °F 78 °F (1983)
Min Temperature 30 °F 31 °F -2 °F (1960)
Degree Days  
Heating Degree Days 27    
Moisture  
Dew Point 36 °F    
Average Humidity 87    
Maximum Humidity 100    
Minimum Humidity 57    
Precipitation  
Precipitation 0.00 in - - ()
Sea Level Pressure  
Sea Level Pressure 29.79 in    
Wind  
Wind Speed 8 mph (SSW)    
Max Wind Speed 28 mph    
Max Gust Speed 41 mph    
Visibility 6 miles    
Events Rain , Snow    
Averages and records for this station are not official NWS values.
T = Trace of Precipitation, MM = Missing Value Source: NWS Daily Summary

Daily Weather History Graph

Daily Weather History Graph

Search for Another Location

Airport or City:

Trip Planner

Search our weather history database for the weather conditions in past years. The results will help you decide how hot, cold, wet, or windy it might be!

Date:

Astronomy

Mar. 05, 2013 Rise Set
Actual Time 7:04 AM EST 6:37 PM EST
Civil Twilight 6:38 AM EST 7:03 PM EST
Nautical Twilight 6:08 AM EST 7:33 PM EST
Astronomical Twilight 5:37 AM EST 8:03 PM EST
Moon 2:10 AM EST (3/5) 12:20 PM EST (3/5)
Length of Visible Light 12h 24m
Length of Day
11h 32m
Last Quarter, 41% of the Moon is Illuminated
Mar 5
Last Quarter
Mar 11
New
Mar 19
First Quarter
Mar 27
Full
Apr 3
Last Quarter

Hourly Weather History & Observations

Time (EST) Temp. Windchill Dew Point Humidity Pressure Visibility Wind Dir Wind Speed Gust Speed Precip Events Conditions
12:15 AM 41.0 °F 39.0 °F 28.4 °F 61% 29.95 in 10.0 mi SSE 3.5 mph - N/A   Overcast
12:35 AM 41.0 °F 37.1 °F 28.4 °F 61% 29.95 in 10.0 mi SSE 5.8 mph - N/A   Overcast
12:55 AM 41.0 °F 36.4 °F 28.4 °F 61% 29.94 in 10.0 mi South 6.9 mph - N/A   Overcast
1:15 AM 42.8 °F 38.0 °F 28.4 °F 57% 29.93 in 10.0 mi South 8.1 mph - N/A   Overcast
1:35 AM 42.8 °F 38.6 °F 28.4 °F 57% 29.93 in 10.0 mi SSE 6.9 mph - N/A   Overcast
1:55 AM 42.8 °F 38.0 °F 28.4 °F 57% 29.93 in 10.0 mi South 8.1 mph - N/A   Overcast
2:15 AM 42.8 °F 37.5 °F 28.4 °F 57% 29.92 in 10.0 mi South 9.2 mph - N/A   Overcast
2:35 AM 42.8 °F 39.3 °F 28.4 °F 57% 29.91 in 10.0 mi South 5.8 mph - N/A   Overcast
2:55 AM 42.8 °F 40.1 °F 30.2 °F 61% 29.90 in 10.0 mi South 4.6 mph - N/A   Overcast
3:15 AM 42.8 °F 38.6 °F 30.2 °F 61% 29.89 in 10.0 mi South 6.9 mph - N/A   Overcast
3:35 AM 42.8 °F 39.3 °F 30.2 °F 61% 29.88 in 10.0 mi South 5.8 mph - N/A   Overcast
3:55 AM 42.8 °F 37.5 °F 30.2 °F 61% 29.87 in 10.0 mi South 9.2 mph - N/A   Overcast
4:15 AM 44.6 °F 42.2 °F 30.2 °F 57% 29.88 in 10.0 mi South 4.6 mph - N/A   Overcast
4:35 AM 44.6 °F 41.4 °F 32.0 °F 61% 29.88 in 10.0 mi South 5.8 mph - N/A   Drizzle
4:55 AM 42.8 °F 38.0 °F 32.0 °F 66% 29.88 in 10.0 mi South 8.1 mph - N/A Rain Light Rain
5:15 AM 41.0 °F 36.4 °F 35.6 °F 81% 29.89 in 10.0 mi SSW 6.9 mph - N/A Rain Light Rain
5:35 AM 41.0 °F 36.4 °F 35.6 °F 81% 29.89 in 5.0 mi SSW 6.9 mph - N/A Rain Rain
6:15 AM 41.0 °F 37.1 °F 37.4 °F 87% 29.89 in 5.0 mi SSW 5.8 mph - N/A Rain Rain
6:55 AM 41.0 °F 36.4 °F 39.2 °F 93% 29.88 in 5.0 mi South 6.9 mph - N/A Rain Rain
7:15 AM 41.0 °F 35.2 °F 39.2 °F 93% 29.87 in 7.0 mi SSE 9.2 mph - N/A Rain Rain
7:35 AM 41.0 °F 37.1 °F 41.0 °F 100% 29.87 in 5.0 mi SSE 5.8 mph - N/A Rain Light Rain
7:55 AM 41.0 °F 39.0 °F 41.0 °F 100% 29.87 in 4.0 mi SSE 3.5 mph - N/A Rain Light Rain
8:15 AM 41.0 °F 39.0 °F 39.2 °F 93% 29.86 in 2.0 mi SSE 3.5 mph - N/A   Heavy Drizzle
8:35 AM 39.2 °F 35.9 °F 39.2 °F 100% 29.86 in 3.0 mi SE 4.6 mph - N/A   Drizzle
9:15 AM 41.0 °F 37.1 °F 39.2 °F 93% 29.85 in 1.5 mi SSE 5.8 mph - N/A Rain Rain
9:35 AM 41.0 °F 38.0 °F 41.0 °F 100% 29.84 in 2.0 mi SSE 4.6 mph - N/A Rain Rain
9:55 AM 41.0 °F 39.0 °F 41.0 °F 100% 29.83 in 1.5 mi SSE 3.5 mph - N/A Rain Light Rain
10:15 AM 41.0 °F 39.0 °F 41.0 °F 100% 29.82 in 4.0 mi SSE 3.5 mph - N/A   Light Drizzle
10:35 AM 42.8 °F 40.1 °F 41.0 °F 93% 29.80 in 5.0 mi SSE 4.6 mph - N/A   Overcast
10:55 AM 42.8 °F 41.1 °F 42.8 °F 100% 29.79 in 4.0 mi SSE 3.5 mph - N/A   Overcast
11:15 AM 42.8 °F 40.1 °F 42.8 °F 100% 29.78 in 2.5 mi SSE 4.6 mph - N/A   Overcast
11:35 AM 42.8 °F 39.3 °F 42.8 °F 100% 29.75 in 2.0 mi SSE 5.8 mph - N/A   Overcast
11:55 AM 42.8 °F 39.3 °F 42.8 °F 100% 29.75 in 2.5 mi South 5.8 mph - N/A   Overcast
12:15 PM 42.8 °F 38.0 °F 42.8 °F 100% 29.73 in 3.0 mi South 8.1 mph - N/A   Overcast
12:35 PM 42.8 °F 39.3 °F 42.8 °F 100% 29.73 in 2.5 mi South 5.8 mph - N/A Rain Light Rain
12:55 PM 44.6 °F 40.7 °F 42.8 °F 93% 29.72 in 5.0 mi South 6.9 mph - N/A Rain Rain
1:15 PM 44.6 °F 40.2 °F 42.8 °F 93% 29.70 in 5.0 mi South 8.1 mph - N/A Rain Rain
1:35 PM 44.6 °F 40.2 °F 44.6 °F 100% 29.67 in 7.0 mi South 8.1 mph - N/A Rain Light Rain
1:55 PM 44.6 °F 40.2 °F 44.6 °F 100% 29.65 in 3.0 mi South 8.1 mph - N/A Rain Heavy Rain
2:15 PM 44.6 °F 41.4 °F 44.6 °F 100% 29.63 in 7.0 mi South 5.8 mph - N/A Rain Rain
2:35 PM 44.6 °F 43.1 °F 44.6 °F 100% 29.62 in 4.0 mi South 3.5 mph - N/A Rain Rain
2:55 PM 44.6 °F 42.2 °F 44.6 °F 100% 29.61 in 5.0 mi South 4.6 mph - N/A Rain Rain
3:15 PM 46.4 °F 44.3 °F 44.6 °F 93% 29.59 in 5.0 mi SSW 4.6 mph - N/A Rain Rain
3:35 PM 46.4 °F - 44.6 °F 93% 29.58 in 7.0 mi Calm Calm - N/A Rain Rain
3:55 PM 46.4 °F 44.3 °F 46.4 °F 100% 29.58 in 5.0 mi SSW 4.6 mph - N/A Rain Light Rain
4:15 PM 46.4 °F - 46.4 °F 100% 29.58 in 2.5 mi Calm Calm - N/A Rain Heavy Rain
4:35 PM 46.4 °F 43.5 °F 46.4 °F 100% 29.58 in 3.0 mi WSW 5.8 mph - N/A Rain Rain
4:55 PM 46.4 °F 41.9 °F 46.4 °F 100% 29.59 in 7.0 mi West 9.2 mph - N/A Rain Light Rain
5:15 PM 46.4 °F 39.0 °F 44.6 °F 93% 29.60 in 5.0 mi WNW 19.6 mph 27.6 mph N/A Rain Rain
5:35 PM 41.0 °F 30.2 °F 37.4 °F 87% 29.63 in 4.0 mi West 27.6 mph 41.4 mph N/A Rain Rain
5:55 PM 37.4 °F 28.5 °F 33.8 °F 87% 29.65 in 4.0 mi West 15.0 mph 32.2 mph N/A Rain Rain
6:15 PM 33.8 °F 22.8 °F 33.8 °F 100% 29.68 in 4.0 mi West 18.4 mph 33.4 mph N/A Rain Rain
6:35 PM 32.0 °F 19.5 °F 32.0 °F 100% 29.70 in 1.2 mi West 21.9 mph 40.3 mph N/A Snow Light Snow
6:55 PM 32.0 °F 21.6 °F 32.0 °F 100% 29.73 in 0.2 mi WNW 15.0 mph 33.4 mph N/A Snow Snow
7:15 PM 32.0 °F 19.5 °F 32.0 °F 100% 29.75 in 0.8 mi WNW 21.9 mph 34.5 mph N/A Snow Snow
7:35 PM 32.0 °F 20.1 °F 30.2 °F 93% 29.76 in 7.0 mi WNW 19.6 mph 32.2 mph N/A Snow Light Snow
7:55 PM 32.0 °F 20.1 °F 30.2 °F 93% 29.77 in 5.0 mi WNW 19.6 mph 35.7 mph N/A Snow Light Snow
8:15 PM 32.0 °F 19.2 °F 30.2 °F 93% 29.78 in 10.0 mi WNW 23.0 mph 31.1 mph N/A   Overcast
8:35 PM 32.0 °F 18.6 °F 30.2 °F 93% 29.79 in 10.0 mi WNW 25.3 mph 35.7 mph N/A   Overcast
8:55 PM 32.0 °F 18.9 °F 30.2 °F 93% 29.79 in 5.0 mi WNW 24.2 mph 33.4 mph N/A Snow Light Snow
9:15 PM 32.0 °F 18.9 °F 28.4 °F 87% 29.79 in 10.0 mi WNW 24.2 mph 35.7 mph N/A Snow Light Snow
9:35 PM 32.0 °F 19.5 °F 28.4 °F 87% 29.80 in 4.0 mi WNW 21.9 mph 27.6 mph N/A Snow Light Snow
9:55 PM 32.0 °F 19.5 °F 28.4 °F 87% 29.80 in 5.0 mi WNW 21.9 mph 28.8 mph N/A Snow Light Snow
10:15 PM 32.0 °F 19.8 °F 28.4 °F 87% 29.81 in 4.0 mi WNW 20.7 mph 33.4 mph N/A Snow Light Snow
10:35 PM 32.0 °F 19.5 °F 28.4 °F 87% 29.81 in 5.0 mi WNW 21.9 mph 32.2 mph N/A Snow Light Snow
10:55 PM 32.0 °F 20.5 °F 28.4 °F 87% 29.82 in 5.0 mi West 18.4 mph 27.6 mph N/A Snow Light Snow
11:15 PM 30.2 °F 16.2 °F 26.6 °F 86% 29.82 in 3.0 mi West 25.3 mph 32.2 mph N/A Snow Light Snow
11:35 PM 30.2 °F 18.1 °F 26.6 °F 86% 29.82 in 5.0 mi West 18.4 mph 27.6 mph N/A Snow Light Snow
11:55 PM 30.2 °F 18.5 °F 26.6 °F 86% 29.81 in 5.0 mi WNW 17.3 mph 28.8 mph N/A Snow Light Snow